Chadron, NE

1:48 AM MDT on June 24, 2017 (GMT -0600)
Chadron Municipal

Weather History for KCDR - September, 2013

Change the Weather History Date:

Thursday, September 12, 2013

  Actual Average Record
Temperature  
Mean Temperature 67 °F 63 °F  
Max Temperature 84 °F 80 °F 99 °F (1990)
Min Temperature 49 °F 46 °F 31 °F (1989)
Degree Days  
Heating Degree Days 0 5  
Month to date heating degree days 0 38  
Since 1 July heating degree days 0 68  
Cooling Degree Days 2 2  
Month to date cooling degree days 116 42  
Year to date cooling degree days 884 689  
Growing Degree Days 16 (Base 50)    
Moisture  
Dew Point 51 °F    
Average Humidity 64    
Maximum Humidity 100    
Minimum Humidity 28    
Precipitation  
Precipitation 0.00 in 0.06 in 1.04 in (2002)
Month to date precipitation 0.47 0.71  
Year to date precipitation 12.83 14.58  
Sea Level Pressure  
Sea Level Pressure 30.23 in    
Wind  
Wind Speed 7 mph (ESE)    
Max Wind Speed 16 mph    
Max Gust Speed 22 mph    
Visibility 10 miles    
Events      
T = Trace of Precipitation, MM = Missing Value Source: NWS Daily Summary

Daily Weather History Graph

Daily Weather History Graph

Search for Another Location

Airport or City:

Trip Planner

Search our weather history database for the weather conditions in past years. The results will help you decide how hot, cold, wet, or windy it might be!

Date:

Astronomy

Sep. 12, 2013 Rise Set
Actual Time 6:29 AM MDT 7:07 PM MDT
Civil Twilight 6:00 AM MDT 7:35 PM MDT
Nautical Twilight 5:26 AM MDT 8:09 PM MDT
Astronomical Twilight 4:51 AM MDT 8:44 PM MDT
Moon 2:08 PM MDT (9/12) 11:55 PM MDT (9/12)
Length of Visible Light 13h 34m
Length of Day
12h 37m
Waxing Crescent, 51% of the Moon is Illuminated
Sep 12
Waxing Crescent
Sep 19
Full
Sep 26
Last Quarter
Oct 4
New
Oct 11
First Quarter

Hourly Weather History & Observations

Time (MDT) Temp. Dew Point Humidity Pressure Visibility Wind Dir Wind Speed Gust Speed Precip Events Conditions
12:53 AM 57.0 °F 55.9 °F 96% 30.22 in 10.0 mi WSW 3.5 mph - N/A   Clear
1:53 AM 57.0 °F 53.1 °F 87% 30.22 in 10.0 mi Calm Calm - N/A   Clear
2:53 AM 55.0 °F 52.0 °F 89% 30.23 in 10.0 mi Calm Calm - N/A   Clear
3:53 AM 54.0 °F 52.0 °F 93% 30.24 in 10.0 mi Calm Calm - N/A   Clear
4:53 AM 52.0 °F 51.1 °F 97% 30.25 in 10.0 mi WSW 4.6 mph - N/A   Clear
5:53 AM 51.1 °F 48.9 °F 92% 30.27 in 10.0 mi Calm Calm - N/A   Clear
6:53 AM 50.0 °F 48.9 °F 96% 30.30 in 8.0 mi Calm Calm - N/A   Clear
7:53 AM 57.0 °F 54.0 °F 89% 30.30 in 10.0 mi Calm Calm - N/A   Clear
8:53 AM 61.0 °F 54.0 °F 78% 30.30 in 10.0 mi NW 3.5 mph - N/A   Clear
9:53 AM 64.9 °F 55.9 °F 73% 30.30 in 10.0 mi Calm Calm - N/A   Clear
10:53 AM 70.0 °F 57.0 °F 63% 30.29 in 10.0 mi NE 3.5 mph - N/A   Clear
11:53 AM 75.0 °F 55.9 °F 51% 30.26 in 10.0 mi North 6.9 mph - N/A   Clear
12:53 PM 79.0 °F 52.0 °F 39% 30.24 in 10.0 mi ESE 5.8 mph 16.1 mph N/A   Mostly Cloudy
1:53 PM 81.0 °F 48.0 °F 31% 30.22 in 10.0 mi ESE 15.0 mph 20.7 mph N/A   Scattered Clouds
2:53 PM 80.1 °F 50.0 °F 35% 30.20 in 10.0 mi ESE 13.8 mph 20.7 mph N/A   Mostly Cloudy
3:53 PM 82.9 °F 46.9 °F 28% 30.18 in 10.0 mi East 12.7 mph - N/A   Partly Cloudy
4:13 PM 80.6 °F 48.2 °F 32% 30.22 in 10.0 mi SE 18.4 mph - N/A   Partly Cloudy
5:53 PM 78.1 °F 48.0 °F 35% 30.19 in 10.0 mi SE 12.7 mph - N/A   Clear
6:53 PM 75.0 °F 48.0 °F 38% 30.19 in 10.0 mi East 10.4 mph - N/A   Clear
7:53 PM 70.0 °F 48.0 °F 46% 30.19 in 10.0 mi ESE 6.9 mph - N/A   Clear
8:53 PM 70.0 °F 48.0 °F 46% 30.19 in 10.0 mi SE 9.2 mph - N/A   Clear
9:53 PM 69.1 °F 48.0 °F 47% 30.19 in 10.0 mi ESE 10.4 mph - N/A   Clear
10:53 PM 66.9 °F 48.0 °F 51% 30.18 in 10.0 mi SSE 12.7 mph - N/A   Clear
11:53 PM 66.0 °F 46.9 °F 50% 30.16 in 10.0 mi SSE 11.5 mph - N/A   Clear